User: anonymous   Login
Location: Unspecified
(0.0000°N, 0.0000°E)
Time: 15:11:37
(UTC+00:00)
Language:

Kosmos-2233 - Orbit

View from above orbital plane
View from above orbital plane
View from above satellite
View from above satellite

Ground track
Ground track

The orbit data is extracted from the following two-line orbital elements,

1 22487U 93008A   18052.15450303  .00000016  00000-0  79230-6 0  9994
2 22487  82.9423 275.7428 0037428 325.2076 147.8941 13.75770040252565
Epoch (UTC): 21 February 2018 03:42:29
Eccentricity: 0.0037428
inclination: 82.9423°
perigee height: 951 km
apogee height: 1006 km
right ascension of ascending node: 275.7428°
argument of perigee: 325.2076°
revolutions per day: 13.75770040
mean anomaly at epoch: 147.8941°
orbit number at epoch: 25256

The dashed part of the orbit path shows where the satellite is in the earth's shadow,  

DLR